Location: Góry Miechowskie
(50.3599°N, 20.1803°E)
Time: 01:53:02
(UTC+00:00)

S-56A Canister/Altair - Pass Details

Date: 18 September 2024
Orbit: 636 x 2487 km, 38.9° (Epoch: 15 October)

Event Time Altitude Azimuth Distance (km) Brightness Sun altitude
Rises 21:56:36 0° 265° (W) 4,080 11.3 -37.7°
Enters shadow 21:58:26 - 257° (WSW) 3,700 11.0 -37.7°
Reaches altitude 10° 22:00:12 10° 247° (WSW) 3,421 - -37.8°
Maximum altitude 22:05:40 18° 209° (SSW) 3,265 - -37.9°
Drops below altitude 10° 22:12:24 10° 172° (S) 4,351 - -38.1°
Sets 22:17:58 0° 157° (SSE) 5,679 - -38.1°
